Retour au catalogue

ARIANE 5 R/B

ActifGTO
NORAD 26721·ROCKET BODY·🇫🇷 France

Lancé Mar 8, 2001 depuis Guiana Space Centre

Loading…

TLE

VieillissantSource: Space-Track

Époque: Sep 14, 2026, 21:05 UTC

1 26721U 01011C   26257.87901389 -.00000163  00000-0  15621-2 0  9996
2 26721   1.4528 263.6873 7048916 257.3335 322.1289  2.24569414209430

Suivez ARIANE 5 R/B en temps réel avec AllMySat

Download on the App Store